Time,TemperatureF,DewpointF,PressureIn,WindDirection,WindDirectionDegrees,WindSpeedMPH,WindSpeedGustMPH,Humidity,HourlyPrecipIn,Conditions,Clouds,dailyrainin,SoftwareType,DateUTC
2013-02-19 00:44:00,34.0,34.0,30.14,East,90,0.0,22.2,100,0.00,,,0.00,WeatherDisplay:10.37,2013-02-19 00:44:00,
2013-02-19 00:49:00,34.0,34.0,30.13,East,90,0.0,0.0,100,0.00,,,0.00,WeatherDisplay:10.37,2013-02-19 00:49:00,
2013-02-19 00:54:00,33.6,33.6,30.13,East,90,0.0,0.0,100,0.00,,,0.00,WeatherDisplay:10.37,2013-02-19 00:54:00,
2013-02-19 00:59:00,33.3,33.3,30.13,East,90,0.0,0.0,100,0.00,,,0.00,WeatherDisplay:10.37,2013-02-19 00:59:00,
2013-02-19 01:04:00,33.1,33.1,30.13,East,90,0.0,0.0,100,0.00,,,0.00,WeatherDisplay:10.37,2013-02-19 01:04:00,
2013-02-19 01:09:00,33.1,33.1,30.12,East,90,0.0,0.0,100,0.00,,,0.00,WeatherDisplay:10.37,2013-02-19 01:09:00,
2013-02-19 01:14:00,33.1,33.1,30.12,East,90,0.0,0.0,100,0.00,,,0.00,WeatherDisplay:10.37,2013-02-19 01:14:00,
2013-02-19 01:19:00,32.9,32.9,30.12,East,90,0.0,0.0,100,0.00,,,0.00,WeatherDisplay:10.37,2013-02-19 01:19:00,
2013-02-19 01:24:00,32.7,32.7,30.13,East,90,0.0,0.0,100,0.00,,,0.00,WeatherDisplay:10.37,2013-02-19 01:24:00,
2013-02-19 01:29:00,32.5,32.5,30.13,East,90,0.0,0.0,100,0.00,,,0.00,WeatherDisplay:10.37,2013-02-19 01:29:00,
2013-02-19 01:34:00,32.7,32.7,30.13,North,0,0.0,1.1,100,0.00,,,0.00,WeatherDisplay:10.37,2013-02-19 01:34:00,
2013-02-19 01:40:00,33.1,33.1,30.12,North,0,0.0,1.1,100,0.00,,,0.00,WeatherDisplay:10.37,2013-02-19 01:40:00,
2013-02-19 01:45:00,33.1,33.1,30.12,North,0,0.0,0.7,100,0.00,,,0.00,WeatherDisplay:10.37,2013-02-19 01:45:00,
2013-02-19 01:50:00,33.1,33.1,30.12,North,0,0.0,1.1,100,0.00,,,0.00,WeatherDisplay:10.37,2013-02-19 01:50:00,
2013-02-19 01:55:00,32.9,32.9,30.13,North,0,0.0,0.0,100,0.00,,,0.00,WeatherDisplay:10.37,2013-02-19 01:55:00,
2013-02-19 02:00:00,32.7,32.7,30.13,North,0,0.0,0.0,100,0.00,,,0.00,WeatherDisplay:10.37,2013-02-19 02:00:00,
2013-02-19 02:05:00,32.5,32.5,30.13,North,0,0.0,0.0,100,0.00,,,0.00,WeatherDisplay:10.37,2013-02-19 02:05:00,
2013-02-19 02:10:00,32.7,32.7,30.13,North,0,0.0,1.1,100,0.00,,,0.00,WeatherDisplay:10.37,2013-02-19 02:10:00,
2013-02-19 02:15:00,32.5,32.5,30.12,North,0,0.0,0.0,100,0.00,,,0.00,WeatherDisplay:10.37,2013-02-19 02:15:00,
2013-02-19 02:20:00,32.5,32.5,30.12,North,0,0.0,0.0,100,0.00,,,0.00,WeatherDisplay:10.37,2013-02-19 02:20:00,
2013-02-19 02:25:00,32.4,32.4,30.12,North,0,0.0,0.0,100,0.00,,,0.00,WeatherDisplay:10.37,2013-02-19 02:25:00,
2013-02-19 02:30:00,32.2,32.2,30.12,North,0,0.0,0.0,100,0.00,,,0.00,WeatherDisplay:10.37,2013-02-19 02:30:00,
2013-02-19 02:35:00,32.2,32.2,30.12,North,0,0.0,0.0,100,0.00,,,0.00,WeatherDisplay:10.37,2013-02-19 02:35:00,
2013-02-19 02:40:00,32.0,32.0,30.11,North,0,0.0,0.0,100,0.00,,,0.00,WeatherDisplay:10.37,2013-02-19 02:40:00,
2013-02-19 02:45:00,32.0,32.0,30.12,East,90,0.0,0.7,100,0.00,,,0.00,WeatherDisplay:10.37,2013-02-19 02:45:00,
2013-02-19 02:50:00,32.0,32.0,30.11,NE,45,0.0,0.0,100,0.00,,,0.00,WeatherDisplay:10.37,2013-02-19 02:50:00,
2013-02-19 02:55:00,32.2,32.2,30.12,NE,45,0.0,1.1,100,0.00,,,0.00,WeatherDisplay:10.37,2013-02-19 02:55:00,
2013-02-19 03:00:00,32.2,32.2,30.12,NE,45,0.0,1.1,100,0.00,,,0.00,WeatherDisplay:10.37,2013-02-19 03:00:00,
2013-02-19 03:06:00,32.0,32.0,30.11,NE,45,0.0,0.0,100,0.00,,,0.00,WeatherDisplay:10.37,2013-02-19 03:06:00,
2013-02-19 03:11:00,31.6,31.6,30.11,NE,45,0.0,0.0,100,0.00,,,0.00,WeatherDisplay:10.37,2013-02-19 03:11:00,
2013-02-19 03:16:00,31.6,31.6,30.11,NE,45,0.0,1.1,100,0.00,,,0.00,WeatherDisplay:10.37,2013-02-19 03:16:00,
2013-02-19 03:21:00,31.5,31.5,30.12,NE,45,0.0,0.0,100,0.00,,,0.00,WeatherDisplay:10.37,2013-02-19 03:21:00,
2013-02-19 03:26:00,31.3,31.3,30.11,NE,45,0.0,0.7,100,0.00,,,0.00,WeatherDisplay:10.37,2013-02-19 03:26:00,
2013-02-19 03:31:00,31.1,31.1,30.11,NE,45,0.0,0.0,100,0.00,,,0.00,WeatherDisplay:10.37,2013-02-19 03:31:00,
2013-02-19 03:36:00,30.9,30.9,30.11,NE,45,0.0,0.0,100,0.00,,,0.00,WeatherDisplay:10.37,2013-02-19 03:36:00,
2013-02-19 03:41:00,30.7,30.7,30.11,NE,45,0.0,0.0,100,0.00,,,0.00,WeatherDisplay:10.37,2013-02-19 03:41:00,
2013-02-19 03:46:00,30.7,30.7,30.11,NE,45,0.0,0.0,100,0.00,,,0.00,WeatherDisplay:10.37,2013-02-19 03:46:00,
2013-02-19 03:51:00,30.4,30.4,30.11,NE,45,0.0,0.0,100,0.00,,,0.00,WeatherDisplay:10.37,2013-02-19 03:51:00,
2013-02-19 03:56:00,30.4,30.4,30.11,NE,45,0.0,0.7,100,0.00,,,0.00,WeatherDisplay:10.37,2013-02-19 03:56:00,
2013-02-19 04:01:00,30.4,30.4,30.11,NE,45,0.0,1.1,100,0.00,,,0.00,WeatherDisplay:10.37,2013-02-19 04:01:00,
2013-02-19 04:06:00,30.6,30.6,30.11,NE,45,0.0,1.6,100,0.00,,,0.00,WeatherDisplay:10.37,2013-02-19 04:06:00,
2013-02-19 04:11:00,30.7,30.7,30.11,NE,45,0.0,1.1,100,0.00,,,0.00,WeatherDisplay:10.37,2013-02-19 04:11:00,
2013-02-19 04:16:00,30.7,30.7,30.11,NE,45,0.0,0.0,100,0.00,,,0.00,WeatherDisplay:10.37,2013-02-19 04:16:00,
2013-02-19 04:21:00,30.6,30.6,30.10,NE,45,0.0,0.0,100,0.00,,,0.00,WeatherDisplay:10.37,2013-02-19 04:21:00,
2013-02-19 04:26:00,30.6,30.6,30.11,NE,45,0.0,0.0,100,0.00,,,0.00,WeatherDisplay:10.37,2013-02-19 04:26:00,
2013-02-19 04:31:00,30.6,30.6,30.10,NE,45,0.0,0.0,100,0.00,,,0.00,WeatherDisplay:10.37,2013-02-19 04:31:00,
2013-02-19 04:36:00,30.2,30.2,30.10,NE,45,0.0,0.0,100,0.00,,,0.00,WeatherDisplay:10.37,2013-02-19 04:36:00,
2013-02-19 04:42:00,30.0,30.0,30.11,NE,45,0.0,0.0,100,0.00,,,0.00,WeatherDisplay:10.37,2013-02-19 04:42:00,
2013-02-19 04:47:00,29.8,29.8,30.10,NE,45,0.0,0.0,100,0.00,,,0.00,WeatherDisplay:10.37,2013-02-19 04:47:00,
2013-02-19 04:52:00,29.8,29.8,30.10,NE,45,0.0,0.0,100,0.00,,,0.00,WeatherDisplay:10.37,2013-02-19 04:52:00,
2013-02-19 04:57:00,30.0,30.0,30.11,NE,45,0.0,0.0,100,0.00,,,0.00,WeatherDisplay:10.37,2013-02-19 04:57:00,
2013-02-19 05:00:00,30.0,30.0,30.11,NE,45,0.0,0.0,100,0.00,,,0.00,WeatherDisplay:10.37,2013-02-19 05:00:00,
2013-02-19 05:05:00,29.8,29.8,30.10,NE,45,0.0,0.0,100,0.00,,,0.00,WeatherDisplay:10.37,2013-02-19 05:05:00,
2013-02-19 05:10:00,29.5,29.5,30.10,NE,45,0.0,0.0,100,0.00,,,0.00,WeatherDisplay:10.37,2013-02-19 05:10:00,
2013-02-19 05:15:00,29.1,29.1,30.09,NE,45,0.0,0.0,100,0.00,,,0.00,WeatherDisplay:10.37,2013-02-19 05:15:00,
2013-02-19 05:20:00,29.3,29.3,30.11,NE,45,0.0,0.0,100,0.00,,,0.00,WeatherDisplay:10.37,2013-02-19 05:20:00,
2013-02-19 05:25:00,29.3,29.3,30.10,NE,45,0.0,0.0,100,0.00,,,0.00,WeatherDisplay:10.37,2013-02-19 05:25:00,
2013-02-19 05:30:00,29.1,29.1,30.10,NE,45,0.0,0.0,100,0.00,,,0.00,WeatherDisplay:10.37,2013-02-19 05:30:00,
2013-02-19 05:35:00,29.1,29.1,30.10,NE,45,0.0,0.0,100,0.00,,,0.00,WeatherDisplay:10.37,2013-02-19 05:35:00,
2013-02-19 05:40:00,28.9,28.9,30.10,NE,45,0.0,0.0,100,0.00,,,0.00,WeatherDisplay:10.37,2013-02-19 05:40:00,
2013-02-19 05:45:00,28.9,28.9,30.11,NE,45,0.0,0.0,100,0.00,,,0.00,WeatherDisplay:10.37,2013-02-19 05:45:00,
2013-02-19 05:50:00,28.9,28.9,30.10,NE,45,0.0,0.0,100,0.00,,,0.00,WeatherDisplay:10.37,2013-02-19 05:50:00,
2013-02-19 05:55:00,29.1,29.1,30.11,NE,45,0.0,0.0,100,0.00,,,0.00,WeatherDisplay:10.37,2013-02-19 05:55:00,
2013-02-19 06:00:00,28.9,28.9,30.11,NE,45,0.0,0.0,100,0.00,,,0.00,WeatherDisplay:10.37,2013-02-19 06:00:00,
2013-02-19 06:05:00,28.8,28.8,30.10,NE,45,0.0,0.0,100,0.00,,,0.00,WeatherDisplay:10.37,2013-02-19 06:05:00,
2013-02-19 06:10:00,28.8,28.8,30.11,NE,45,0.0,0.0,100,0.00,,,0.00,WeatherDisplay:10.37,2013-02-19 06:10:00,
2013-02-19 06:15:00,28.9,28.9,30.10,NE,45,0.0,1.1,100,0.00,,,0.00,WeatherDisplay:10.37,2013-02-19 06:15:00,
2013-02-19 06:20:00,29.3,29.3,30.11,NE,45,0.0,0.0,100,0.00,,,0.00,WeatherDisplay:10.37,2013-02-19 06:20:00,
2013-02-19 06:30:00,29.3,29.3,30.10,NE,45,0.0,0.0,100,0.00,,,0.00,WeatherDisplay:10.37,2013-02-19 06:30:00,
2013-02-19 06:35:00,29.1,29.1,30.10,NE,45,0.0,0.0,100,0.00,,,0.00,WeatherDisplay:10.37,2013-02-19 06:35:00,
2013-02-19 06:40:00,29.1,29.1,30.10,NE,45,0.0,0.0,100,0.00,,,0.00,WeatherDisplay:10.37,2013-02-19 06:40:00,
2013-02-19 06:46:00,28.9,28.9,30.10,NE,45,0.0,0.0,100,0.00,,,0.00,WeatherDisplay:10.37,2013-02-19 06:46:00,
2013-02-19 06:51:00,28.8,28.8,30.10,NE,45,0.0,0.0,100,0.00,,,0.00,WeatherDisplay:10.37,2013-02-19 06:51:00,
2013-02-19 06:56:00,28.8,28.8,30.11,NE,45,0.0,0.0,100,0.00,,,0.00,WeatherDisplay:10.37,2013-02-19 06:56:00,
2013-02-19 07:01:00,28.8,28.8,30.11,NE,45,0.0,0.0,100,0.00,,,0.00,WeatherDisplay:10.37,2013-02-19 07:01:00,
2013-02-19 07:06:00,28.8,28.8,30.11,NE,45,0.0,0.0,100,0.00,,,0.00,WeatherDisplay:10.37,2013-02-19 07:06:00,
2013-02-19 07:11:00,28.8,28.8,30.11,NE,45,0.0,0.0,100,0.00,,,0.00,WeatherDisplay:10.37,2013-02-19 07:11:00,
2013-02-19 07:16:00,28.9,28.9,30.11,NE,45,0.0,0.0,100,0.00,,,0.00,WeatherDisplay:10.37,2013-02-19 07:16:00,
2013-02-19 07:21:00,28.9,28.9,30.10,NE,45,0.0,0.0,100,0.00,,,0.00,WeatherDisplay:10.37,2013-02-19 07:21:00,
2013-02-19 07:26:00,28.8,28.8,30.11,NE,45,0.0,0.0,100,0.00,,,0.00,WeatherDisplay:10.37,2013-02-19 07:26:00,
2013-02-19 07:31:00,28.9,28.9,30.10,NE,45,0.0,0.0,100,0.00,,,0.00,WeatherDisplay:10.37,2013-02-19 07:31:00,
2013-02-19 07:36:00,29.3,29.3,30.11,NE,45,0.0,0.0,100,0.00,,,0.00,WeatherDisplay:10.37,2013-02-19 07:36:00,
2013-02-19 07:41:00,29.3,29.3,30.11,NE,45,0.0,0.0,100,0.00,,,0.00,WeatherDisplay:10.37,2013-02-19 07:41:00,
2013-02-19 07:46:00,29.5,29.5,30.11,NE,45,0.0,0.0,100,0.00,,,0.00,WeatherDisplay:10.37,2013-02-19 07:46:00,
2013-02-19 07:51:00,29.7,29.7,30.11,NE,45,0.0,0.0,100,0.00,,,0.00,WeatherDisplay:10.37,2013-02-19 07:51:00,
2013-02-19 07:56:00,29.8,29.8,30.11,NE,45,0.0,0.0,100,0.00,,,0.00,WeatherDisplay:10.37,2013-02-19 07:56:00,
2013-02-19 08:01:00,29.8,29.8,30.11,NE,45,0.0,0.0,100,0.00,,,0.00,WeatherDisplay:10.37,2013-02-19 08:01:00,
2013-02-19 08:06:00,30.4,30.4,30.11,NE,45,0.0,0.0,100,0.00,,,0.00,WeatherDisplay:10.37,2013-02-19 08:06:00,
2013-02-19 08:11:00,30.7,30.7,30.11,NE,45,0.0,0.0,100,0.00,,,0.00,WeatherDisplay:10.37,2013-02-19 08:11:00,
2013-02-19 08:16:00,30.9,30.9,30.11,NE,45,0.0,0.0,100,0.00,,,0.00,WeatherDisplay:10.37,2013-02-19 08:16:00,
2013-02-19 08:21:00,31.3,31.3,30.11,NE,45,0.0,0.0,100,0.00,,,0.00,WeatherDisplay:10.37,2013-02-19 08:21:00,
2013-02-19 08:26:00,31.8,31.8,30.11,NE,45,0.0,0.0,100,0.00,,,0.00,WeatherDisplay:10.37,2013-02-19 08:26:00,
2013-02-19 08:31:00,32.2,32.2,30.11,NE,45,0.0,0.0,100,0.00,,,0.00,WeatherDisplay:10.37,2013-02-19 08:31:00,
2013-02-19 08:36:00,32.7,32.7,30.11,NE,45,0.0,0.7,100,0.00,,,0.00,WeatherDisplay:10.37,2013-02-19 08:36:00,
2013-02-19 08:41:00,33.1,33.1,30.11,North,0,0.0,1.1,100,0.00,,,0.00,WeatherDisplay:10.37,2013-02-19 08:41:00,
2013-02-19 08:46:00,33.4,33.4,30.11,North,0,0.0,1.1,100,0.00,,,0.00,WeatherDisplay:10.37,2013-02-19 08:46:00,
2013-02-19 08:51:00,33.8,33.8,30.11,NE,45,0.0,1.1,100,0.00,,,0.00,WeatherDisplay:10.37,2013-02-19 08:51:00,
2013-02-19 08:56:00,34.2,34.2,30.11,NE,45,0.0,0.0,100,0.00,,,0.00,WeatherDisplay:10.37,2013-02-19 08:56:00,
2013-02-19 09:02:00,34.5,34.5,30.11,NE,45,0.0,1.1,100,0.00,,,0.00,WeatherDisplay:10.37,2013-02-19 09:02:00,
2013-02-19 09:07:00,34.9,34.9,30.11,NE,45,0.0,0.0,100,0.00,,,0.00,WeatherDisplay:10.37,2013-02-19 09:07:00,
2013-02-19 09:12:00,35.2,35.2,30.11,NE,45,0.0,0.0,100,0.00,,,0.00,WeatherDisplay:10.37,2013-02-19 09:12:00,
2013-02-19 09:17:00,36.1,36.1,30.11,NE,45,0.0,0.0,100,0.00,,,0.00,WeatherDisplay:10.37,2013-02-19 09:17:00,
2013-02-19 09:22:00,37.6,37.6,30.11,NW,315,0.0,1.1,100,0.00,,,0.00,WeatherDisplay:10.37,2013-02-19 09:22:00,
2013-02-19 09:27:00,38.8,38.8,30.11,NW,315,0.0,0.7,100,0.00,,,0.00,WeatherDisplay:10.37,2013-02-19 09:27:00,
2013-02-19 09:32:00,39.7,39.7,30.11,NW,315,0.0,0.0,100,0.00,,,0.00,WeatherDisplay:10.37,2013-02-19 09:32:00,
2013-02-19 09:37:00,41.4,41.4,30.10,NW,315,0.0,1.1,100,0.00,,,0.00,WeatherDisplay:10.37,2013-02-19 09:37:00,
2013-02-19 09:42:00,44.1,44.1,30.10,NW,315,0.0,0.0,100,0.00,,,0.00,WeatherDisplay:10.37,2013-02-19 09:42:00,
2013-02-19 09:47:00,45.9,45.9,30.11,NW,315,0.0,1.1,100,0.00,,,0.00,WeatherDisplay:10.37,2013-02-19 09:47:00,
2013-02-19 09:52:00,45.9,45.9,30.10,NW,315,0.0,0.0,100,0.00,,,0.00,WeatherDisplay:10.37,2013-02-19 09:52:00,
2013-02-19 09:57:00,48.0,47.8,30.11,South,180,0.0,0.7,99,0.00,CLR,,0.00,WeatherDisplay:10.37,2013-02-19 09:57:00,
2013-02-19 10:02:00,48.7,45.9,30.11,NW,315,0.7,2.3,90,0.00,CLR,,0.00,WeatherDisplay:10.37,2013-02-19 10:02:00,
2013-02-19 10:07:00,48.9,45.8,30.11,North,0,0.0,1.1,89,0.00,CLR,,0.00,WeatherDisplay:10.37,2013-02-19 10:07:00,
2013-02-19 10:12:00,49.8,42.9,30.11,South,180,0.7,2.3,77,0.00,CLR,,0.00,WeatherDisplay:10.37,2013-02-19 10:12:00,
2013-02-19 10:17:00,49.5,43.5,30.11,WSW,248,0.0,1.1,80,0.00,CLR,,0.00,WeatherDisplay:10.37,2013-02-19 10:17:00,
2013-02-19 10:22:00,51.3,46.0,30.11,WSW,248,0.0,0.7,82,0.00,CLR,,0.00,WeatherDisplay:10.37,2013-02-19 10:22:00,
2013-02-19 10:27:00,53.1,46.0,30.11,North,0,0.0,1.6,77,0.00,CLR,,0.00,WeatherDisplay:10.37,2013-02-19 10:27:00,
2013-02-19 10:32:00,53.1,43.9,30.11,South,180,0.0,1.6,71,0.00,CLR,,0.00,WeatherDisplay:10.37,2013-02-19 10:32:00,
2013-02-19 10:37:00,52.5,43.4,30.11,WSW,248,0.0,1.6,71,0.00,CLR,,0.00,WeatherDisplay:10.37,2013-02-19 10:37:00,
2013-02-19 10:42:00,53.1,43.5,30.11,SE,135,0.0,1.6,70,0.00,CLR,,0.00,WeatherDisplay:10.37,2013-02-19 10:42:00,
2013-02-19 10:47:00,54.3,44.4,30.11,East,90,0.0,1.1,69,0.00,CLR,,0.00,WeatherDisplay:10.37,2013-02-19 10:47:00,
2013-02-19 10:52:00,55.6,44.8,30.11,NE,45,0.0,1.6,67,0.00,CLR,,0.00,WeatherDisplay:10.37,2013-02-19 10:52:00,
2013-02-19 10:57:00,54.9,43.3,30.11,ENE,68,0.0,1.6,65,0.00,CLR,,0.00,WeatherDisplay:10.37,2013-02-19 10:57:00,
2013-02-19 11:02:00,55.2,43.2,30.11,East,90,0.0,1.1,64,0.00,CLR,,0.00,WeatherDisplay:10.37,2013-02-19 11:02:00,
2013-02-19 11:07:00,54.3,42.0,30.11,SE,135,0.7,3.5,63,0.00,CLR,,0.00,WeatherDisplay:10.37,2013-02-19 11:07:00,
2013-02-19 11:12:00,53.2,42.2,30.11,SE,135,0.7,2.3,66,0.00,CLR,,0.00,WeatherDisplay:10.37,2013-02-19 11:12:00,
2013-02-19 11:17:00,53.1,42.0,30.11,South,180,0.7,2.3,66,0.00,CLR,,0.00,WeatherDisplay:10.37,2013-02-19 11:17:00,
2013-02-19 11:22:00,52.9,41.4,30.11,NE,45,0.0,3.5,65,0.00,CLR,,0.00,WeatherDisplay:10.37,2013-02-19 11:22:00,
2013-02-19 11:27:00,52.9,41.0,30.11,SE,135,0.7,4.6,64,0.00,CLR,,0.00,WeatherDisplay:10.37,2013-02-19 11:27:00,
2013-02-19 11:32:00,52.5,41.5,30.11,NNW,338,0.0,1.6,66,0.00,CLR,,0.00,WeatherDisplay:10.37,2013-02-19 11:32:00,
2013-02-19 11:37:00,52.5,41.1,30.10,North,0,0.0,3.5,65,0.00,CLR,,0.00,WeatherDisplay:10.37,2013-02-19 11:37:00,
2013-02-19 11:42:00,52.9,41.8,30.10,NE,45,0.7,1.6,66,0.00,CLR,,0.00,WeatherDisplay:10.37,2013-02-19 11:42:00,
2013-02-19 11:47:00,52.7,40.9,30.10,NW,315,0.7,3.5,64,0.00,CLR,,0.00,WeatherDisplay:10.37,2013-02-19 11:47:00,
2013-02-19 11:52:00,53.1,41.6,30.10,North,0,0.7,2.3,65,0.00,CLR,,0.00,WeatherDisplay:10.37,2013-02-19 11:52:00,
2013-02-19 11:57:00,53.1,41.2,30.09,NNE,22,0.7,2.3,64,0.00,CLR,,0.00,WeatherDisplay:10.37,2013-02-19 11:57:00,
2013-02-19 12:02:00,52.9,41.0,30.10,NE,45,0.0,2.3,64,0.00,CLR,,0.00,WeatherDisplay:10.37,2013-02-19 12:02:00,
2013-02-19 12:07:00,53.2,41.0,30.09,North,0,1.6,3.1,63,0.00,CLR,,0.00,WeatherDisplay:10.37,2013-02-19 12:07:00,
2013-02-19 12:13:00,53.8,41.1,30.09,SE,135,0.7,2.3,62,0.00,CLR,,0.00,WeatherDisplay:10.37,2013-02-19 12:13:00,
2013-02-19 12:18:00,54.0,41.2,30.09,SE,135,0.7,3.5,62,0.00,CLR,,0.00,WeatherDisplay:10.37,2013-02-19 12:18:00,
2013-02-19 12:23:00,53.8,41.1,30.09,NW,315,0.7,2.2,62,0.00,CLR,,0.00,WeatherDisplay:10.37,2013-02-19 12:23:00,
2013-02-19 12:28:00,54.3,41.1,30.09,South,180,0.7,1.6,61,0.00,CLR,,0.00,WeatherDisplay:10.37,2013-02-19 12:28:00,
2013-02-19 12:33:00,54.5,41.3,30.09,NE,45,0.7,2.3,61,0.00,CLR,,0.00,WeatherDisplay:10.37,2013-02-19 12:33:00,
2013-02-19 12:38:00,54.5,40.9,30.09,NE,45,0.0,3.5,60,0.00,CLR,,0.00,WeatherDisplay:10.37,2013-02-19 12:38:00,
2013-02-19 12:43:00,54.7,40.6,30.08,North,0,0.7,2.3,59,0.00,CLR,,0.00,WeatherDisplay:10.37,2013-02-19 12:43:00,
2013-02-19 12:48:00,54.7,40.2,30.08,NW,315,0.7,3.5,58,0.00,CLR,,0.00,WeatherDisplay:10.37,2013-02-19 12:48:00,
2013-02-19 12:53:00,55.4,40.4,30.08,NE,45,0.7,2.3,57,0.00,CLR,,0.00,WeatherDisplay:10.37,2013-02-19 12:53:00,
2013-02-19 12:58:00,54.7,40.2,30.08,South,180,1.6,3.5,58,0.00,CLR,,0.00,WeatherDisplay:10.37,2013-02-19 12:58:00,
2013-02-19 13:03:00,54.7,41.1,30.08,North,0,0.7,2.3,60,0.00,CLR,,0.00,WeatherDisplay:10.37,2013-02-19 13:03:00,
2013-02-19 13:05:00,40.5,36.0,30.08,ENE,60,0.0,1.0,84,0.00,-SN,-SN,0.00,WeatherDisplay:10.37,2013-02-19 13:05:00,
2013-02-19 13:08:00,55.2,39.8,30.07,SE,135,0.7,3.5,56,0.00,CLR,,0.00,WeatherDisplay:10.37,2013-02-19 13:08:00,
2013-02-19 13:13:00,56.8,41.3,30.08,East,90,0.7,3.5,56,0.00,CLR,,0.00,WeatherDisplay:10.37,2013-02-19 13:13:00,
2013-02-19 13:18:00,57.4,40.9,30.07,NW,315,1.6,3.5,54,0.00,CLR,,0.00,WeatherDisplay:10.37,2013-02-19 13:18:00,
2013-02-19 13:23:00,57.7,40.2,30.07,East,90,1.6,6.9,52,0.00,CLR,,0.00,WeatherDisplay:10.37,2013-02-19 13:23:00,
2013-02-19 13:28:00,58.3,41.7,30.06,NE,45,0.0,2.3,54,0.00,CLR,,0.00,WeatherDisplay:10.37,2013-02-19 13:28:00,
2013-02-19 13:33:00,58.6,41.1,30.07,NE,45,1.6,3.8,52,0.00,CLR,,0.00,WeatherDisplay:10.37,2013-02-19 13:33:00,
2013-02-19 13:38:00,59.4,41.7,30.06,South,180,0.0,2.3,52,0.00,CLR,,0.00,WeatherDisplay:10.37,2013-02-19 13:38:00,
2013-02-19 13:43:00,58.8,41.2,30.07,NE,45,0.0,3.5,52,0.00,CLR,,0.00,WeatherDisplay:10.37,2013-02-19 13:43:00,
2013-02-19 13:48:00,59.7,41.6,30.07,NW,315,0.0,3.5,51,0.00,CLR,,0.00,WeatherDisplay:10.37,2013-02-19 13:48:00,
2013-02-19 13:53:00,59.0,40.9,30.06,North,0,0.0,2.3,51,0.00,CLR,,0.00,WeatherDisplay:10.37,2013-02-19 13:53:00,
2013-02-19 13:58:00,59.9,42.7,30.06,South,180,0.0,1.1,53,0.00,CLR,,0.00,WeatherDisplay:10.37,2013-02-19 13:58:00,
2013-02-19 14:03:00,59.9,41.2,30.06,East,90,0.0,3.5,50,0.00,CLR,,0.00,WeatherDisplay:10.37,2013-02-19 14:03:00,
2013-02-19 14:08:00,59.5,40.9,30.06,SE,135,0.0,1.6,50,0.00,CLR,,0.00,WeatherDisplay:10.37,2013-02-19 14:08:00,
2013-02-19 14:13:00,57.9,39.9,30.05,SE,135,0.0,2.3,51,0.00,CLR,,0.00,WeatherDisplay:10.37,2013-02-19 14:13:00,
2013-02-19 14:18:00,59.0,40.9,30.05,North,0,0.7,3.1,51,0.00,CLR,,0.00,WeatherDisplay:10.37,2013-02-19 14:18:00,
2013-02-19 14:23:00,59.0,40.4,30.05,North,0,0.7,2.3,50,0.00,CLR,,0.00,WeatherDisplay:10.37,2013-02-19 14:23:00,
2013-02-19 14:28:00,59.2,40.0,30.05,West,270,1.6,2.3,49,0.00,CLR,,0.00,WeatherDisplay:10.37,2013-02-19 14:28:00,
2013-02-19 14:33:00,59.2,40.0,30.05,SE,135,0.0,1.1,49,0.00,CLR,,0.00,WeatherDisplay:10.37,2013-02-19 14:33:00,
2013-02-19 14:38:00,59.0,38.8,30.05,North,0,0.7,2.3,47,0.00,CLR,,0.00,WeatherDisplay:10.37,2013-02-19 14:38:00,
2013-02-19 14:43:00,59.0,38.2,30.05,SE,135,0.0,2.3,46,0.00,CLR,,0.00,WeatherDisplay:10.37,2013-02-19 14:43:00,
2013-02-19 14:48:00,59.2,37.8,30.05,SSW,202,0.0,3.5,45,0.00,CLR,,0.00,WeatherDisplay:10.37,2013-02-19 14:48:00,
2013-02-19 14:53:00,57.2,36.6,30.05,NW,315,1.6,3.5,46,0.00,CLR,,0.00,WeatherDisplay:10.37,2013-02-19 14:53:00,
2013-02-19 14:59:00,54.3,36.6,30.05,East,90,0.0,1.1,51,0.00,CLR,,0.00,WeatherDisplay:10.37,2013-02-19 14:59:00,
2013-02-19 15:04:00,52.9,35.7,30.05,North,0,0.0,3.5,52,0.00,CLR,,0.00,WeatherDisplay:10.37,2013-02-19 15:04:00,
2013-02-19 15:09:00,52.0,35.8,30.05,East,90,0.7,3.8,54,0.00,CLR,,0.00,WeatherDisplay:10.37,2013-02-19 15:09:00,
2013-02-19 15:14:00,52.0,36.3,30.05,NE,45,0.0,1.1,55,0.00,CLR,,0.00,WeatherDisplay:10.37,2013-02-19 15:14:00,
2013-02-19 15:19:00,55.4,40.0,30.05,East,90,0.0,0.0,56,0.00,CLR,,0.00,WeatherDisplay:10.37,2013-02-19 15:19:00,
2013-02-19 15:24:00,57.7,39.2,30.05,North,0,0.0,2.3,50,0.00,CLR,,0.00,WeatherDisplay:10.37,2013-02-19 15:24:00,
2013-02-19 15:29:00,58.3,38.7,30.05,NE,45,0.0,1.1,48,0.00,CLR,,0.00,WeatherDisplay:10.37,2013-02-19 15:29:00,
2013-02-19 15:34:00,58.1,38.0,30.04,NW,315,0.0,3.5,47,0.00,CLR,,0.00,WeatherDisplay:10.37,2013-02-19 15:34:00,
2013-02-19 15:39:00,58.1,38.0,30.05,East,90,0.0,3.5,47,0.00,CLR,,0.00,WeatherDisplay:10.37,2013-02-19 15:39:00,
2013-02-19 15:44:00,56.1,37.2,30.05,North,0,0.0,1.1,49,0.00,CLR,,0.00,WeatherDisplay:10.37,2013-02-19 15:44:00,
2013-02-19 15:49:00,54.1,36.4,30.04,East,90,0.0,1.1,51,0.00,CLR,,0.00,WeatherDisplay:10.37,2013-02-19 15:49:00,
2013-02-19 15:54:00,52.9,36.7,30.05,North,0,0.7,2.2,54,0.00,CLR,,0.00,WeatherDisplay:10.37,2013-02-19 15:54:00,
2013-02-19 15:59:00,52.2,36.9,30.05,East,90,0.0,1.1,56,0.00,CLR,,0.00,WeatherDisplay:10.37,2013-02-19 15:59:00,
2013-02-19 16:04:00,51.4,36.7,30.05,West,270,0.0,4.6,57,0.00,CLR,,0.00,WeatherDisplay:10.37,2013-02-19 16:04:00,
2013-02-19 16:09:00,51.1,36.8,30.05,NE,45,0.0,1.1,58,0.00,CLR,,0.00,WeatherDisplay:10.37,2013-02-19 16:09:00,
2013-02-19 16:14:00,51.1,36.8,30.05,East,90,0.0,1.6,58,0.00,CLR,,0.00,WeatherDisplay:10.37,2013-02-19 16:14:00,
2013-02-19 16:19:00,52.5,38.2,30.05,ENE,68,0.0,3.5,58,0.00,CLR,,0.00,WeatherDisplay:10.37,2013-02-19 16:19:00,
2013-02-19 16:24:00,54.0,37.7,30.05,North,0,0.0,3.5,54,0.00,CLR,,0.00,WeatherDisplay:10.37,2013-02-19 16:24:00,
2013-02-19 16:29:00,53.8,37.0,30.05,North,0,0.7,1.6,53,0.00,CLR,,0.00,WeatherDisplay:10.37,2013-02-19 16:29:00,
2013-02-19 16:34:00,52.3,36.6,30.05,NE,45,0.0,1.1,55,0.00,CLR,,0.00,WeatherDisplay:10.37,2013-02-19 16:34:00,
2013-02-19 16:39:00,51.4,36.3,30.05,NE,45,0.0,2.3,56,0.00,CLR,,0.00,WeatherDisplay:10.37,2013-02-19 16:39:00,
2013-02-19 16:44:00,50.5,36.3,30.06,NE,45,0.0,1.1,58,0.00,CLR,,0.00,WeatherDisplay:10.37,2013-02-19 16:44:00,
2013-02-19 16:49:00,50.0,36.7,30.05,East,90,0.0,1.1,60,0.00,CLR,,0.00,WeatherDisplay:10.37,2013-02-19 16:49:00,
2013-02-19 16:54:00,49.6,36.7,30.05,East,90,0.0,0.0,61,0.00,CLR,,0.00,WeatherDisplay:10.37,2013-02-19 16:54:00,
2013-02-19 16:59:00,49.1,36.6,30.05,NE,45,0.0,1.1,62,0.00,CLR,,0.00,WeatherDisplay:10.37,2013-02-19 16:59:00,
2013-02-19 17:04:00,48.6,36.5,30.05,East,90,0.0,0.0,63,0.00,CLR,,0.00,WeatherDisplay:10.37,2013-02-19 17:04:00,
2013-02-19 17:09:00,48.2,36.2,30.05,East,90,0.0,1.1,63,0.00,CLR,,0.00,WeatherDisplay:10.37,2013-02-19 17:09:00,
2013-02-19 17:14:00,47.8,36.2,30.05,East,90,0.0,0.0,64,0.00,CLR,,0.00,WeatherDisplay:10.37,2013-02-19 17:14:00,
2013-02-19 17:19:00,47.3,36.1,30.05,East,90,0.0,0.0,65,0.00,CLR,,0.00,WeatherDisplay:10.37,2013-02-19 17:19:00,
2013-02-19 17:24:00,46.8,36.0,30.06,East,90,0.0,0.0,66,0.00,CLR,,0.00,WeatherDisplay:10.37,2013-02-19 17:24:00,
2013-02-19 17:29:00,46.4,36.4,30.06,North,0,0.0,0.0,68,0.00,CLR,,0.00,WeatherDisplay:10.37,2013-02-19 17:29:00,
2013-02-19 17:34:00,46.0,36.4,30.06,North,0,0.0,1.1,69,0.00,CLR,,0.00,WeatherDisplay:10.37,2013-02-19 17:34:00,
2013-02-19 17:39:00,45.9,37.0,30.06,East,90,0.0,1.1,71,0.00,CLR,,0.00,WeatherDisplay:10.37,2013-02-19 17:39:00,
2013-02-19 17:44:00,45.9,37.0,30.06,East,90,0.0,0.0,71,0.00,CLR,,0.00,WeatherDisplay:10.37,2013-02-19 17:44:00,
2013-02-19 17:49:00,45.3,36.5,30.06,East,90,0.0,0.0,71,0.00,CLR,,0.00,WeatherDisplay:10.37,2013-02-19 17:49:00,
2013-02-19 17:54:00,45.0,36.5,30.06,East,90,0.0,0.0,72,0.00,CLR,,0.00,WeatherDisplay:10.37,2013-02-19 17:54:00,
2013-02-19 17:59:00,44.6,36.5,30.06,East,90,0.0,0.0,73,0.00,CLR,,0.00,WeatherDisplay:10.37,2013-02-19 17:59:00,
2013-02-19 18:04:00,44.6,36.8,30.07,East,90,0.0,1.1,74,0.00,CLR,,0.00,WeatherDisplay:10.37,2013-02-19 18:04:00,
2013-02-19 18:09:00,44.4,37.0,30.07,East,90,0.0,1.1,75,0.00,CLR,,0.00,WeatherDisplay:10.37,2013-02-19 18:09:00,
2013-02-19 18:14:00,44.2,36.8,30.07,East,90,0.0,0.0,75,0.00,CLR,,0.00,WeatherDisplay:10.37,2013-02-19 18:14:00,
2013-02-19 18:19:00,44.1,37.0,30.07,East,90,0.0,1.1,76,0.00,CLR,,0.00,WeatherDisplay:10.37,2013-02-19 18:19:00,
2013-02-19 18:24:00,43.9,36.8,30.07,East,90,0.0,1.1,76,0.00,CLR,,0.00,WeatherDisplay:10.37,2013-02-19 18:24:00,
2013-02-19 18:29:00,43.9,37.1,30.07,NE,45,0.0,1.1,77,0.00,CLR,,0.00,WeatherDisplay:10.37,2013-02-19 18:29:00,
2013-02-19 18:34:00,43.7,37.3,30.07,North,0,0.0,0.0,78,0.00,CLR,,0.00,WeatherDisplay:10.37,2013-02-19 18:34:00,
2013-02-19 18:39:00,43.5,37.1,30.08,North,0,0.0,0.0,78,0.00,CLR,,0.00,WeatherDisplay:10.37,2013-02-19 18:39:00,
2013-02-19 18:44:00,43.3,36.9,30.08,East,90,0.0,0.0,78,0.00,CLR,,0.00,WeatherDisplay:10.37,2013-02-19 18:44:00,
2013-02-19 18:49:00,43.2,36.8,30.08,East,90,0.0,1.1,78,0.00,CLR,,0.00,WeatherDisplay:10.37,2013-02-19 18:49:00,
2013-02-19 18:54:00,43.0,36.9,30.08,ENE,68,0.0,0.0,79,0.00,CLR,,0.00,WeatherDisplay:10.37,2013-02-19 18:54:00,
2013-02-19 18:59:00,42.8,36.7,30.08,East,90,0.0,0.0,79,0.00,CLR,,0.00,WeatherDisplay:10.37,2013-02-19 18:59:00,
2013-02-19 19:04:00,42.6,36.9,30.08,ENE,68,0.0,0.7,80,0.00,CLR,,0.00,WeatherDisplay:10.37,2013-02-19 19:04:00,
2013-02-19 19:10:00,42.4,36.7,30.08,East,90,0.0,0.0,80,0.00,CLR,,0.00,WeatherDisplay:10.37,2013-02-19 19:10:00,
2013-02-19 19:15:00,42.3,36.8,30.08,NE,45,0.0,0.0,81,0.00,CLR,,0.00,WeatherDisplay:10.37,2013-02-19 19:15:00,
2013-02-19 19:20:00,42.3,36.8,30.08,NE,45,0.0,1.1,81,0.00,CLR,,0.00,WeatherDisplay:10.37,2013-02-19 19:20:00,
2013-02-19 19:25:00,42.1,37.0,30.08,East,90,0.0,1.1,82,0.00,CLR,,0.00,WeatherDisplay:10.37,2013-02-19 19:25:00,
2013-02-19 19:30:00,41.9,36.8,30.08,East,90,0.0,0.0,82,0.00,-SN,-SN,0.00,WeatherDisplay:10.37,2013-02-19 19:30:00,
2013-02-19 19:35:00,41.7,36.6,30.08,East,90,0.0,0.0,82,0.00,-SN,-SN,0.00,WeatherDisplay:10.37,2013-02-19 19:35:00,
2013-02-19 19:40:00,41.5,36.7,30.08,East,90,0.0,1.0,83,0.00,-SN,-SN,0.00,WeatherDisplay:10.37,2013-02-19 19:40:00,
2013-02-19 19:45:00,41.2,36.4,30.08,East,90,0.0,0.0,83,0.00,-SN,-SN,0.00,WeatherDisplay:10.37,2013-02-19 19:45:00,
2013-02-19 19:50:00,40.8,36.1,30.08,East,90,0.0,0.0,83,0.00,CLR,,0.00,WeatherDisplay:10.37,2013-02-19 19:50:00,
2013-02-19 19:55:00,40.6,35.9,30.08,East,90,0.0,0.0,83,0.00,CLR,,0.00,WeatherDisplay:10.37,2013-02-19 19:55:00,
2013-02-19 20:00:00,40.5,36.0,30.08,East,90,0.0,1.1,84,0.00,CLR,,0.00,WeatherDisplay:10.37,2013-02-19 20:00:00,
2013-02-19 20:05:00,40.5,36.3,30.08,NE,45,0.0,1.6,85,0.00,CLR,,0.00,WeatherDisplay:10.37,2013-02-19 20:05:00,
2013-02-19 20:10:00,40.6,36.5,30.08,North,0,0.0,1.1,85,0.00,CLR,,0.00,WeatherDisplay:10.37,2013-02-19 20:10:00,
2013-02-19 20:15:00,40.6,36.5,30.08,SE,135,0.0,1.1,85,0.00,CLR,,0.00,WeatherDisplay:10.37,2013-02-19 20:15:00,
2013-02-19 20:20:00,40.5,36.0,30.08,SE,135,0.0,0.0,84,0.00,CLR,,0.00,WeatherDisplay:10.37,2013-02-19 20:20:00,
2013-02-19 20:25:00,40.1,35.7,30.08,SE,135,0.0,0.0,84,0.00,CLR,,0.00,WeatherDisplay:10.37,2013-02-19 20:25:00,
2013-02-19 20:30:00,40.1,36.0,30.08,NE,45,0.0,1.1,85,0.00,CLR,,0.00,WeatherDisplay:10.37,2013-02-19 20:30:00,
2013-02-19 20:35:00,40.1,36.0,30.08,East,90,0.0,1.1,85,0.00,CLR,,0.00,WeatherDisplay:10.37,2013-02-19 20:35:00,
2013-02-19 20:40:00,40.3,36.4,30.08,East,90,0.0,0.0,86,0.00,CLR,,0.00,WeatherDisplay:10.37,2013-02-19 20:40:00,
2013-02-19 20:45:00,40.5,36.6,30.08,NE,45,0.0,1.1,86,0.00,CLR,,0.00,WeatherDisplay:10.37,2013-02-19 20:45:00,
2013-02-19 20:50:00,40.5,36.6,30.08,East,90,0.0,1.1,86,0.00,CLR,,0.00,WeatherDisplay:10.37,2013-02-19 20:50:00,
2013-02-19 20:55:00,40.5,36.6,30.08,East,90,0.0,1.1,86,0.00,CLR,,0.00,WeatherDisplay:10.37,2013-02-19 20:55:00,
2013-02-19 21:00:00,40.3,36.4,30.09,SE,135,0.0,1.6,86,0.00,CLR,,0.00,WeatherDisplay:10.37,2013-02-19 21:00:00,
2013-02-19 21:05:00,40.1,36.2,30.09,NE,45,0.0,1.1,86,0.00,CLR,,0.00,WeatherDisplay:10.37,2013-02-19 21:05:00,
2013-02-19 21:11:00,40.3,36.4,30.09,SE,135,0.0,1.1,86,0.00,CLR,,0.00,WeatherDisplay:10.37,2013-02-19 21:11:00,
2013-02-19 21:16:00,40.1,36.5,30.09,SE,135,0.0,2.3,87,0.00,CLR,,0.00,WeatherDisplay:10.37,2013-02-19 21:16:00,
2013-02-19 21:21:00,40.1,36.5,30.09,East,90,0.0,1.1,87,0.00,CLR,,0.00,WeatherDisplay:10.37,2013-02-19 21:21:00,
2013-02-19 21:26:00,39.9,36.4,30.09,ESE,112,0.0,1.1,87,0.00,CLR,,0.00,WeatherDisplay:10.37,2013-02-19 21:26:00,
2013-02-19 21:31:00,39.7,36.5,30.09,East,90,0.0,1.1,88,0.00,CLR,,0.00,WeatherDisplay:10.37,2013-02-19 21:31:00,
2013-02-19 21:36:00,39.6,36.3,30.09,East,90,0.0,1.1,88,0.00,CLR,,0.00,WeatherDisplay:10.37,2013-02-19 21:36:00,
2013-02-19 21:41:00,39.6,36.6,30.10,NE,45,0.0,2.3,89,0.00,CLR,,0.00,WeatherDisplay:10.37,2013-02-19 21:41:00,
2013-02-19 21:46:00,39.4,36.4,30.10,East,90,0.0,1.1,89,0.00,CLR,,0.00,WeatherDisplay:10.37,2013-02-19 21:46:00,
2013-02-19 21:51:00,39.2,36.2,30.10,NE,45,0.0,1.1,89,0.00,CLR,,0.00,WeatherDisplay:10.37,2013-02-19 21:51:00,
2013-02-19 21:56:00,39.0,36.3,30.10,NE,45,0.0,2.3,90,0.00,CLR,,0.00,WeatherDisplay:10.37,2013-02-19 21:56:00,
2013-02-19 22:01:00,39.0,36.3,30.10,NE,45,0.0,1.1,90,0.00,CLR,,0.00,WeatherDisplay:10.37,2013-02-19 22:01:00,
2013-02-19 22:06:00,39.0,36.3,30.09,East,90,0.0,1.1,90,0.00,CLR,,0.00,WeatherDisplay:10.37,2013-02-19 22:06:00,
2013-02-19 22:11:00,38.7,36.0,30.10,NE,45,0.0,1.1,90,0.00,CLR,,0.00,WeatherDisplay:10.37,2013-02-19 22:11:00,
2013-02-19 22:16:00,38.5,35.8,30.09,NE,45,0.0,0.0,90,0.00,CLR,,0.00,WeatherDisplay:10.37,2013-02-19 22:16:00,
2013-02-19 22:21:00,38.3,35.6,30.09,NE,45,0.0,0.0,90,0.00,CLR,,0.00,WeatherDisplay:10.37,2013-02-19 22:21:00,
2013-02-19 22:26:00,38.1,35.7,30.10,NE,45,0.0,0.0,91,0.00,CLR,,0.00,WeatherDisplay:10.37,2013-02-19 22:26:00,
2013-02-19 22:31:00,37.9,35.5,30.10,NE,45,0.0,0.0,91,0.00,CLR,,0.00,WeatherDisplay:10.37,2013-02-19 22:31:00,
2013-02-19 22:36:00,37.9,35.8,30.10,East,90,0.0,1.1,92,0.00,CLR,,0.00,WeatherDisplay:10.37,2013-02-19 22:36:00,
2013-02-19 22:41:00,37.8,35.9,30.09,East,90,0.0,1.1,93,0.00,CLR,,0.00,WeatherDisplay:10.37,2013-02-19 22:41:00,
2013-02-19 22:46:00,37.8,35.9,30.10,NE,45,0.0,1.1,93,0.00,CLR,,0.00,WeatherDisplay:10.37,2013-02-19 22:46:00,
2013-02-19 22:51:00,37.8,35.9,30.10,SE,135,0.0,1.1,93,0.00,CLR,,0.00,WeatherDisplay:10.37,2013-02-19 22:51:00,
2013-02-19 22:56:00,37.6,35.7,30.10,East,90,0.0,0.0,93,0.00,CLR,,0.00,WeatherDisplay:10.37,2013-02-19 22:56:00,
2013-02-19 23:01:00,37.6,36.0,30.10,East,90,0.0,1.6,94,0.00,CLR,,0.00,WeatherDisplay:10.37,2013-02-19 23:01:00,
2013-02-19 23:06:00,37.6,36.3,30.10,East,90,0.0,3.5,95,0.00,CLR,,0.00,WeatherDisplay:10.37,2013-02-19 23:06:00,
2013-02-19 23:11:00,37.4,36.1,30.10,NE,45,0.0,2.3,95,0.00,CLR,,0.00,WeatherDisplay:10.37,2013-02-19 23:11:00,
2013-02-19 23:16:00,37.4,36.1,30.09,East,90,0.0,2.3,95,0.00,CLR,,0.00,WeatherDisplay:10.37,2013-02-19 23:16:00,
2013-02-19 23:21:00,37.4,36.4,30.10,South,180,0.0,3.5,96,0.00,CLR,,0.00,WeatherDisplay:10.37,2013-02-19 23:21:00,
2013-02-19 23:26:00,37.2,36.2,30.10,NE,45,0.0,1.6,96,0.00,CLR,,0.00,WeatherDisplay:10.37,2013-02-19 23:26:00,
2013-02-19 23:31:00,37.0,36.0,30.10,SE,135,0.0,1.1,96,0.00,CLR,,0.00,WeatherDisplay:10.37,2013-02-19 23:31:00,
2013-02-19 23:36:00,37.0,36.0,30.10,East,90,0.7,3.1,96,0.00,CLR,,0.00,WeatherDisplay:10.37,2013-02-19 23:36:00,
2013-02-19 23:41:00,36.9,35.8,30.10,ENE,68,0.0,1.1,96,0.00,CLR,,0.00,WeatherDisplay:10.37,2013-02-19 23:41:00,
2013-02-19 23:46:00,36.7,35.6,30.11,NE,45,0.0,3.5,96,0.00,CLR,,0.00,WeatherDisplay:10.37,2013-02-19 23:46:00,
2013-02-19 23:51:00,36.5,35.5,30.11,East,90,0.0,2.3,96,0.00,CLR,,0.00,WeatherDisplay:10.37,2013-02-19 23:51:00,
2013-02-19 23:56:00,36.0,34.9,30.11,NE,45,0.0,1.1,96,0.00,CLR,,0.00,WeatherDisplay:10.37,2013-02-19 23:56:00,